Погода в Диквелле

Шри-Ланка     5°58′11″N   80°41′09″E
темп.,
°C
ветер,
м/с
пор.,
м/с
влажн.,
%
обл.,
%
осадки,
мм/ч
давл.,
гПа
погр.,
м
13 июня, вс
вс1323:30+26з51187100 0.3 1011873
02:30+26з511888 0.4 1009754
05:30+26з6118731 0.5 1009814
08:30+28з6107419 0.3 10101086
11:30+30зюз71063100 0.3 10101309
14:30+29з71070100 0.4 10081215
17:30+27з61079100 0.9 1008948
20:30+26з5108874 1.3 1010635
14 июня, пн
пн1423:30+26з5118570 3.4 1010715
02:30+25з7138281 2.3 1009928
05:30+25з71489100 2.9 1010927
08:30+26з61369100 0.1 10111023
11:30+28зсз61165100 0.1 10101260
14:30+30з8116197 0.1 10071384
17:30+28з6127498 0.1 10081257
20:30+26з5118694 0.0 1010784
15 июня, вт
вт1523:30+26з51187100 0.1 1010809
02:30+26з51188100 0.2 1008803
05:30+26з5118767 0.3 1008810
08:30+28з61075100 0.1 10091142
11:30+31зюз7106072 0.1 10091431
14:30+31зюз8106154 0.0 10071406
17:30+28з6117438 0.1 10081087
20:30+26з5108325 0.0 1010766
16 июня, ср
ср1623:30+26з5108425 0.1 1010789
02:30+26з51083100 0.2 1009768
05:30+26з51083100 0.6 1009784
08:30+28з6972100 0.1 10111128
11:30+31зюз7105986 0.1 10091313
14:30+31зюз796213 0.1 10081310
17:30+28зюз6107382 0.1 10091073
20:30+26з5108281 0.0 1011663
17 июня, чт
чт1723:30+26з498597 0.1 1011491
02:30+25з4986100 0.0 1009523
05:30+25з4888100 0.1 1010468
08:30+28з5773100 0.1 1011914
11:30+31зюз6862100 0.3 10101307
14:30+30зюз7962100 0.0 10081224
17:30+28з5975100 0.0 1009893
20:30+26з4984100 0.0 1010644